User: anonymous   Login
Location: St. Louis
(38.6270°N, 90.1994°W)
Time: 15:10:34
(UTC-06:00)
Language:

Oscar 19 - Orbit

View from above orbital plane
View from above orbital plane
View from above satellite
View from above satellite

Ground track
Ground track

The orbit data is extracted from the following two-line orbital elements,

1 20442U 90005G   22021.47577004  .00000041  00000-0  31501-4 0  9996
2 20442  98.7738 344.2653 0010794 237.9715 122.0420 14.33017252672057
Epoch (UTC): 21 January 2022 11:25:06
Eccentricity: 0.0010794
inclination: 98.7738°
perigee height: 774 km
apogee height: 789 km
right ascension of ascending node: 344.2653°
argument of perigee: 237.9715°
revolutions per day: 14.33017252
mean anomaly at epoch: 122.0420°
orbit number at epoch: 67205

The dashed part of the orbit path shows where the satellite is in the earth's shadow,  

DLR